Theta_e
357 360 361 360 361 360 360 362 359 360 360 358 358 358 356 356 356 355 354 364 360 361 359 361 364 365 363 361 363 363 362 359 361 360 358 357 356 356 358 357 356 354 355
361 361 361 360 359 360 359 360 363 360 357 354 350 352 357 358 356 357 355 356 363 361 361 359 364 366 366 364 363 363 363 361 361 361 361 360 359 357 358 359 358 358 357
369 369 362 360 358 363 365 360 359 355 351 349 349 347 350 354 354 357 358 357 357 362 360 358 360 362 364 365 364 363 362 362 361 360 360 359 359 358 358 359 359 359 358
369 367 359 356 359 360 357 354 352 351 349 348 349 347 346 346 348 352 353 354 355 355 359 358 358 359 361 363 364 363 361 361 360 360 359 359 358 359 359 358 357 357 357
364 366 358 357 363 353 353 354 353 353 350 348 345 345 345 343 341 339 344 351 353 353 353 360 358 358 357 358 362 363 363 362 361 360 360 359 359 357 357 357 357 356 356
364 365 359 363 363 354 352 357 360 356 351 346 343 341 341 341 343 344 345 343 344 349 349 354 356 356 360 358 359 360 362 363 362 361 361 360 359 358 357 357 356 355 355
365 366 360 360 362 359 363 363 357 350 345 348 340 335 336 341 344 342 341 339 340 343 348 346 350 350 350 357 356 356 357 360 361 360 362 360 360 358 357 357 356 355 355
364 365 366 363 364 361 363 361 356 343 338 343 337 334 327 332 340 338 342 341 345 344 343 344 346 346 346 347 351 357 358 358 358 360 360 360 358 357 357 356 355 355 355
365 367 369 367 368 366 355 355 349 346 336 337 343 337 329 326 333 339 338 340 342 341 342 342 342 342 344 344 346 348 355 355 357 358 359 359 357 356 356 356 355 354 354
365 367 370 368 367 357 354 351 346 345 344 335 340 344 342 340 331 328 334 335 337 337 338 336 334 335 338 336 341 345 347 346 351 353 356 357 357 357 357 356 356 354 354
366 364 365 362 359 355 355 350 347 346 341 341 338 337 340 337 337 331 325 327 330 331 330 330 330 331 334 335 335 338 346 348 349 351 352 353 356 358 359 358 357 357 356
359 362 360 359 358 353 349 345 347 347 347 345 342 340 334 330 328 327 324 325 324 326 327 330 332 333 334 334 338 341 343 344 343 344 347 350 352 355 358 360 360 359 359
354 361 359 354 351 350 349 348 347 348 347 343 344 336 333 331 330 328 325 322 321 324 326 329 331 332 332 334 335 340 340 340 340 339 340 341 346 349 352 355 358 359 360
359 356 351 349 348 348 347 348 345 344 346 342 340 339 333 329 327 325 323 322 320 322 325 332 330 331 331 332 335 338 334 335 336 336 335 336 342 343 344 348 351 355 356
357 352 347 348 350 348 346 347 344 345 344 340 336 335 330 327 327 327 328 328 324 318 321 326 326 334 332 332 335 335 336 335 336 335 334 335 337 339 340 343 344 345 346
359 348 347 348 347 347 346 348 344 345 340 334 332 333 332 328 328 328 328 329 329 325 321 325 326 333 337 334 333 331 330 332 332 332 332 331 335 335 336 338 339 341 341
355 350 349 348 348 346 345 347 346 339 337 335 335 332 331 332 326 327 331 331 329 327 323 326 329 332 327 325 326 328 330 330 332 331 330 330 330 330 332 335 336 337 339
353 351 349 349 348 344 346 346 342 336 336 333 333 332 330 327 329 332 330 333 330 332 326 327 330 324 322 322 323 323 328 330 329 331 330 331 330 330 331 332 332 332 332
354 351 350 348 346 345 346 345 341 336 336 334 333 331 330 329 327 330 332 329 328 329 327 325 319 320 320 322 320 323 323 327 328 330 329 329 329 330 329 329 328 326 324
355 352 350 347 346 345 345 343 338 337 337 334 334 332 330 327 327 331 329 328 329 326 325 319 315 315 317 322 320 319 319 323 325 327 329 329 330 330 329 329 329 327 322
353 350 348 346 345 344 340 340 337 336 336 334 334 332 328 327 329 328 325 326 326 323 319 316 312 314 314 316 317 321 319 321 324 327 327 329 332 333 332 329 332 330 325
351 349 346 343 343 339 327 328 332 335 335 334 332 330 327 327 328 326 325 323 323 322 320 312 311 311 311 315 317 318 319 319 316 329 326 327 332 331 331 333 330 327 325
351 348 344 343 341 342 324 324 328 334 334 334 332 326 323 323 328 328 321 321 324 324 322 314 310 311 312 316 317 316 320 320 319 324 330 324 328 326 332 332 327 325 324
347 344 343 343 342 341 322 321 325 333 334 333 327 325 325 327 326 317 318 323 327 326 323 318 314 315 318 320 325 322 322 322 324 325 331 320 329 333 336 335 328 326 324
343 342 342 343 342 341 319 318 323 333 332 327 325 325 326 327 315 310 316 321 323 324 320 319 317 317 317 319 322 324 321 319 319 324 336 325 333 339 338 338 339 326 323
343 339 341 342 334 339 315 313 320 329 326 322 325 325 315 315 308 306 314 319 317 316 321 321 317 315 316 316 322 325 324 320 320 323 330 329 340 343 338 350 350 343 340
Wind_Speed
3 4 4 5 4 3 2 2 5 3 6 6 6 9 10 9 10 7 7 11 9 9 11 13 13 15 16 15 16 17 17 17 16 16 17 16 14 14 14 14 15 14 13
4 6 5 4 3 4 5 5 6 7 6 6 7 7 9 9 9 9 9 8 12 11 11 12 13 14 16 17 17 18 18 17 17 17 16 16 15 15 15 16 16 16 15
5 5 4 4 4 3 4 4 5 5 6 6 8 8 8 8 9 10 9 9 8 14 13 12 13 14 17 18 18 18 19 18 18 18 17 17 17 17 17 16 16 16 16
5 5 4 4 5 4 4 5 6 6 8 8 7 7 7 8 8 9 9 7 8 9 8 15 14 13 15 17 18 18 18 19 20 19 19 19 19 18 18 18 18 17 17
5 5 5 4 4 5 4 5 6 7 8 8 9 9 8 9 10 8 7 7 7 7 7 2 9 11 14 15 15 18 19 19 19 20 20 20 21 21 20 20 19 19 18
5 5 5 3 5 5 5 7 7 8 9 7 9 9 8 7 6 5 5 7 6 6 7 7 7 7 14 11 11 13 16 18 19 20 21 21 22 22 22 21 21 20 20
6 5 6 4 4 5 6 6 6 8 6 7 9 8 8 6 3 4 7 6 7 7 6 6 7 6 7 10 13 13 14 15 16 18 21 22 22 22 22 22 22 21 21
7 7 6 5 4 6 4 5 5 6 7 5 7 9 6 5 2 10 5 6 5 8 9 8 10 10 9 9 10 4 10 13 15 17 19 19 22 22 22 23 23 22 22
7 6 6 6 5 6 5 4 4 5 7 5 4 4 6 6 11 1 7 5 9 7 9 10 11 11 11 11 11 13 16 15 15 16 17 17 17 21 22 22 23 23 23
7 6 5 5 4 3 3 3 3 5 4 6 4 2 3 8 8 9 7 11 8 10 10 9 11 11 11 11 13 14 15 15 14 16 17 17 17 18 20 23 23 24 23
6 6 4 5 4 5 3 3 4 3 5 5 5 5 6 7 6 7 15 13 11 9 10 10 11 12 13 12 13 13 11 9 11 13 16 18 18 18 18 23 24 24 24
5 4 4 4 3 3 4 3 3 4 4 5 6 6 7 8 9 9 12 13 16 13 11 12 11 11 12 12 15 17 17 15 14 15 17 17 19 18 18 19 23 24 25
5 5 8 4 2 3 5 5 4 4 4 5 5 6 6 7 8 9 11 12 12 13 13 12 12 12 13 13 15 17 20 15 14 14 15 17 18 19 18 19 20 23 24
6 7 6 9 5 5 6 6 7 4 3 4 5 5 7 8 9 9 11 12 13 13 14 16 12 13 13 14 17 22 19 23 22 18 18 19 17 17 18 19 18 18 17
7 9 10 9 7 6 5 6 7 6 3 4 4 5 7 9 9 10 11 11 13 15 14 15 15 16 15 15 15 17 19 22 20 18 15 17 17 14 14 16 15 14 14
9 3 7 6 6 6 6 8 7 4 4 4 5 6 8 9 10 10 11 11 12 14 17 15 15 17 17 15 17 18 16 25 25 24 21 19 16 14 15 16 16 15 15
9 9 8 6 6 6 8 8 7 4 6 5 6 7 10 11 10 11 11 12 12 14 17 16 16 17 16 18 17 16 16 16 14 22 19 22 22 20 18 18 17 17 16
13 10 8 7 8 8 9 9 8 5 6 6 7 9 11 10 13 12 10 14 14 14 16 25 18 16 16 16 17 19 16 14 13 21 19 18 20 19 18 17 16 16 14
14 11 9 8 8 9 9 8 6 6 7 6 8 9 12 13 13 12 13 13 14 14 17 17 19 15 15 14 13 14 14 14 12 22 23 21 16 14 16 16 15 15 14
12 10 9 8 8 9 8 8 7 8 7 7 9 10 12 13 13 14 13 16 15 17 18 15 14 16 13 14 10 11 11 10 11 11 15 18 17 17 22 18 17 17 15
8 9 9 9 10 8 8 8 7 6 6 9 10 11 12 12 14 11 11 15 17 16 15 13 14 14 14 12 11 8 9 8 9 9 9 11 11 13 15 18 20 21 17
11 9 9 10 9 7 11 6 2 7 8 9 10 11 12 14 8 12 10 18 18 18 17 12 14 15 18 15 12 10 9 7 6 8 10 12 8 11 13 14 21 24 21
11 10 10 9 9 8 9 7 6 7 9 9 10 11 11 10 12 14 18 20 19 17 15 16 16 17 19 18 16 11 10 7 7 7 7 8 7 11 12 14 13 23 19
10 9 9 9 9 6 9 7 8 8 8 9 9 10 11 11 10 13 15 17 17 17 16 14 16 18 17 15 9 6 5 5 5 8 10 5 8 10 10 11 18 20 19
8 9 8 10 9 8 9 7 7 8 7 8 8 9 8 9 11 12 13 15 17 15 17 20 24 25 27 22 9 1 1 2 3 7 1 3 6 5 8 9 13 15 14
9 9 9 9 7 7 7 8 6 6 6 7 9 6 11 7 8 9 11 13 15 14 16 19 18 19 20 20 16 6 4 3 4 5 4 5 4 4 4 1 6 9 8
Wind_Direction
299 286 334 306 326 344 42 4 343 335 319 298 312 309 302 302 289 279 282 161 202 237 260 269 263 246 238 230 228 230 227 231 233 234 236 235 235 235 233 228 225 227 230
297 310 296 291 312 331 352 339 355 326 323 316 312 306 304 287 282 295 284 288 188 212 243 259 262 252 243 236 232 230 229 231 232 230 231 233 232 232 235 237 231 227 226
285 301 283 288 314 333 276 278 308 318 307 318 318 317 306 301 294 293 288 292 279 196 210 237 253 257 249 241 238 233 229 227 231 232 231 229 231 229 229 234 244 237 229
268 276 271 310 13 280 310 306 321 326 326 323 323 308 310 297 298 286 272 291 296 294 206 211 229 246 257 253 249 248 240 231 228 226 229 229 228 228 228 226 231 238 236
259 280 302 347 329 307 324 322 328 330 322 329 327 321 321 308 302 300 311 292 279 281 294 293 210 243 253 256 258 256 249 239 230 226 225 225 226 227 227 228 227 230 234
271 291 311 343 304 310 323 358 329 330 315 325 325 311 312 308 312 307 302 280 291 306 288 323 304 274 217 238 258 267 266 253 241 231 229 227 226 223 223 224 224 226 230
277 290 290 285 283 281 339 317 316 319 323 348 317 337 309 250 357 332 313 314 323 295 318 306 283 327 301 221 226 242 257 258 257 249 237 233 229 226 222 220 221 221 223
277 271 282 297 308 304 290 327 340 317 316 18 326 309 328 303 259 328 323 313 13 325 305 321 323 296 285 289 291 269 246 253 257 260 255 242 232 229 223 219 219 218 220
246 255 265 278 292 283 320 326 344 322 326 317 17 318 330 346 330 288 318 325 318 317 316 304 299 295 294 284 287 268 237 232 244 252 256 253 247 232 225 222 219 216 216
225 232 240 250 263 308 324 308 343 317 309 322 316 345 314 311 322 314 319 317 303 309 306 296 306 293 293 285 289 282 274 267 254 258 264 261 256 249 230 224 220 217 214
241 231 220 206 217 247 201 291 298 309 297 313 329 319 319 291 309 299 307 311 309 306 309 300 306 298 291 288 286 278 257 255 263 260 260 262 259 252 242 230 224 220 217
193 211 231 244 258 322 270 267 279 252 302 308 309 311 320 320 313 311 300 303 307 308 311 299 293 301 297 289 279 275 272 265 260 261 261 260 261 255 249 244 234 224 219
202 189 191 172 266 253 276 278 242 265 271 304 310 317 311 307 306 302 297 297 301 303 300 303 302 309 305 301 291 282 276 282 281 268 257 262 258 254 252 248 243 235 225
198 199 179 171 181 252 257 258 254 256 253 287 296 314 311 307 310 304 297 301 295 296 303 301 306 307 297 297 296 290 278 265 259 261 261 256 244 249 254 248 240 239 235
209 208 187 165 172 223 249 264 254 250 251 248 311 286 300 315 308 310 294 293 298 300 299 306 303 307 295 300 299 301 296 287 278 272 265 262 248 237 245 246 240 231 228
202 200 196 165 177 197 220 240 252 207 251 274 279 326 308 312 310 302 307 298 296 297 298 303 304 308 306 302 291 283 278 275 273 269 263 256 248 243 241 245 242 234 229
193 187 207 187 199 205 223 237 257 259 239 271 292 295 306 312 308 312 307 295 306 309 305 295 302 304 309 295 286 275 266 262 262 265 264 260 248 245 239 235 236 235 226
184 192 198 200 208 214 229 231 233 236 248 274 300 302 308 316 314 306 306 311 309 305 304 302 305 308 298 289 284 282 271 265 258 265 249 256 238 232 227 223 226 226 215
186 191 188 201 206 219 225 223 231 238 252 278 297 304 307 315 310 315 314 307 308 312 308 304 303 303 294 289 284 278 273 262 247 254 267 266 257 232 224 221 216 216 215
192 188 183 200 214 221 215 224 224 239 256 280 291 296 306 306 316 321 309 313 309 311 309 299 295 294 289 291 266 267 269 260 258 252 252 260 266 242 229 218 216 214 216
185 186 188 197 210 213 211 217 231 254 271 279 293 301 308 321 282 283 307 310 312 308 300 304 298 296 296 294 284 271 257 261 253 249 256 260 247 235 230 219 233 223 210
185 187 187 194 203 221 126 150 274 253 269 279 291 307 313 294 342 296 307 310 302 295 309 304 300 297 294 287 278 270 254 242 252 248 243 252 264 249 249 238 213 217 195
187 181 185 196 204 219 134 151 195 254 276 290 300 309 309 322 320 338 321 316 306 317 316 316 303 298 292 294 279 256 243 233 240 256 271 255 236 250 245 251 193 183 185
174 179 186 192 208 202 149 177 195 247 270 283 301 305 308 318 353 340 325 319 323 324 339 326 315 309 308 312 310 238 245 240 260 263 264 262 267 245 231 223 168 177 185
174 181 189 195 200 198 156 176 198 250 269 294 301 303 318 316 8 339 330 322 324 333 325 345 332 331 344 344 329 312 231 250 277 277 181 221 265 212 213 228 164 161 163
182 183 191 196 187 194 143 165 221 274 293 306 290 306 95 30 341 339 335 330 329 338 334 351 343 351 353 358 359 347 339 304 299 296 22 325 268 193 147 230 97 154 153